Flag for Germany Weather past 2 weeks in Wolfsburg, Lower Saxony, Germany

Now
55 °F

Passing clouds.


Feels Like: 53 °F
Forecast: 42 / 57 °F
Wind: 10 mph from Northwest

Location: Braunschweig

Current Time: May 26, 2015 at 2:16:58 PM

Latest Report: May 26, 2015 at 1:50 PM


Visibility: N/A

Pressure: 30.07 "Hg

Humidity: 59%

Dew point: 41 °F

Location of WolfsburgLocation

Historic Weather in Wolfsburg — Graph

°F

Wolfsburg temperature yesterday

Maximum temperature yesterday: 57 °F (at 10:50 AM)
Minimum temperature yesterday: 55 °F (at 7:50 AM)
Average temperature yesterday: 57 °F

Past Weeks' High & Low Weather Summary

 TemperatureHumidityPressure
High81 °F (May 12, 1:50 PM)100% (May 15, 6:50 AM)30.33 "Hg (May 15, 6:50 AM)
Low37 °F (May 15, 6:50 AM)30% (May 19, 5:20 PM)29.65 "Hg (May 18, 6:50 PM)
Average59 °F57%30.01 "Hg
* Reported May 11 1:20 PM — May 26 1:20 PM, Wolfsburg, Weather by CustomWeather, © 2015

Note: Actual official high and low records may vary slightly from our data, if they occured in-between our weather recording intervals... More about our weather records

Advertising

Wolfsburg weather history for previous 24 hours

 ConditionsComfort  
Time TempWeatherWind HumidityBarometerVisibility
1:20 PM
Tue, May 26
55 °FOvercast.10 mph55%30.04 "HgN/A
12:50 PM55 °FMore clouds than sun.13 mph55%30.04 "HgN/A
12:20 PM55 °FPassing clouds.8 mph55%30.04 "HgN/A
11:50 AM52 °FPartly sunny.10 mph62%30.04 "HgN/A
11:20 AM55 °FPartly sunny.7 mph55%30.04 "HgN/A
10:50 AM52 °FOvercast.7 mph77%30.04 "HgN/A
10:20 AM52 °FBroken clouds.10 mph72%30.04 "HgN/A
9:50 AM52 °FScattered clouds.10 mph72%30.04 "HgN/A
9:20 AM50 °FBroken clouds.10 mph82%30.04 "HgN/A
8:50 AM52 °FBroken clouds.10 mph77%30.04 "HgN/A
8:20 AM50 °FBroken clouds.7 mph88%30.01 "HgN/A
7:50 AM50 °FCloudy.7 mph94%30.01 "HgN/A
7:20 AM48 °FCloudy.7 mph100%30.01 "HgN/A
6:50 AM48 °FOvercast.6 mph100%30.01 "HgN/A
6:20 AM46 °FMore clouds than sun.3 mph100%29.98 "HgN/A
5:50 PM
Mon, May 25
57 °FMore clouds than sun.7 mph88%29.92 "HgN/A
Weather by CustomWeather, © 2015

See weather overviewHow to use our weather pages